Regional Weather Roundup
Issued by NWS

Home | Current Version | Previous Version | Text Only | Print | Product List | Glossary On
Versions: 1 2 3 4 5 6 7 8 9 10 11 12 13 14 15 16 17 18 19 20 21 22 23 24 25 26 27
000
ASUS42 KTBW 220617
RWRFL
FLORIDA REGIONAL WEATHER ROUNDUP
NATIONAL WEATHER SERVICE TAMPA BAY RUSKIN FL
200 AM EDT FRI SEP 22 2017

NOTE: "FAIR" INDICATES FEW OR NO CLOUDS BELOW 12,000 FEET WITH NO
SIGNIFICANT WEATHER AND/OR OBSTRUCTIONS TO VISIBILITY.

FLZ001>010-012>015-112-114-115-220700-
PANHANDLE FLORIDA

CITY           SKY/WX    TMP DP  RH WIND       PRES   REMARKS
PENSACOLA      CLEAR     78  74  87 CALM      29.96F
PENSACOLA NAS  CLEAR     73  71  93 CALM      29.95F
MILTON NAS     CLEAR     71  71 100 CALM      29.97
CRESTVIEW      CLEAR     70  68  93 E3        29.99F FOG
DUKE FIELD     FAIR      70  69  95 CALM      29.97F
VALPARAISO     CLEAR     73  70  90 NE6       29.97S
MARY ESTHER    CLEAR     72  69  89 N3        29.96S
PANAMA CITY    FAIR      71  69  93 CALM      29.97F
TYNDALL AFB    CLEAR     74  71  93 NE3       29.97F
APALACHICOLA   CLEAR     72  72 100 NE5       29.98S

STATION/POSITION SKY/WX   TEMP    WIND        PRES    WAVE   SWELL
                          AIR SEA DIR/SP/G            HT/PER HT/PER
                          (F)     (DEG/KT/KT) (MB)    (FT/S) (FT/S)
30.1N   87.6W              82 84  140/  2/  2 1014.3F   1
29.2N   88.2W              82 85  100/  4/  6 1014.5
28.8N   86.0W              81 83   80/  6/  6 1014.0F   1/ 5
PANAMA CITY BEAC                   90/  5/  8 1015.4F
TOWER C                    79      60/ 11/ 11 1015.2F
28.5N   84.5W              82 83   50/ 12/ 14 1014.0F   1/ 3

$$
FLZ011-016>038-118-127-128-134-139-239-220700-
NORTH FLORIDA

CITY           SKY/WX    TMP DP  RH WIND       PRES   REMARKS
MARIANNA       CLEAR     72  71  97 CALM      29.98F
TALLAHASSEE    CLEAR     70  70 100 CALM      29.99S
LIVE OAK       CLEAR     72  72 100 CALM      30.01S FOG
CROSS CITY     CLEAR     70  70  98 CALM      30.03S FOG
LAKE CITY      FAIR      64  64 100 CALM      30.00S FOG
GAINESVILLE    CLEAR    N/A N/A N/A CALM      30.01S
WILLISTON      CLEAR     72  72 100 CALM      29.98S
PALATKA        FAIR      68  68 100 CALM      29.98S FOG
MAYPORT NAS    CLEAR     79  72  79 E8        29.98F
JACKSONVILLE   PTCLDY    72  72 100 CALM      29.98F
JAX NAS        PTCLDY    79  71  76 NE5       29.99S
JAX CECIL      CLEAR     68  68 100 CALM      29.99S FOG
FERNANDINA BEA FAIR      79  70  73 MISG      29.98S
ST AUGUSTINE   MOCLDY    80  71  74 E8        29.98F
PALM COAST     FAIR      77  31  18 NE3       29.96F

STATION/POSITION SKY/WX   TEMP    WIND        PRES    WAVE   SWELL
                          AIR SEA DIR/SP/G            HT/PER HT/PER
                          (F)     (DEG/KT/KT) (MB)    (FT/S) (FT/S)
SHELL POINT      NOT AVBL
KEATON BEACH               72      60/  5/  7 1014.8F
CEDAR KEY                  78      90/  9/ 10 1015.1F
FERNANDINA                         90/  2/  5 1016.2F
30.7N   81.3W                 82                N/A     2/11   2/11
MAYPORT                           110/  5/  9 1015.7F
31.4N   80.9W              80 81   90/ 10/ 12 1015.5F   2/11   2/11
ST AUGUSTINE               81 83   70/ 11/ 12 1015.2F

$$
FLZ040-043>046-052-053-057-058-063-144-220700-
INTERIOR CENTRAL FLORIDA

CITY           SKY/WX    TMP DP  RH WIND       PRES   REMARKS
OCALA          CLEAR     70  68  93 N3        29.98F
THE VILLAGES     N/A     73  72  94 CALM      29.87S
LEESBURG       CLEAR     75  72  90 CALM      29.97F
SANFORD        CLEAR     76  70  82 N3        29.95F
ORLANDO EXEC   CLEAR     76  71  85 NE3       29.95F
ORLANDO INTL   CLEAR     75  72  90 NE5       29.95F
KISSIMMEE      CLEAR     77  71  82 NE3       29.96F
WINTER HAVEN   CLEAR     75  69  81 NE5       29.96F
SEBRING        FAIR      76  72  86 NE3       29.93F
OKEECHOBEE     CLEAR     72  72 100 CALM      29.93S

$$
FLZ041-047-054-059-064-141-147-220700-
EAST CENTRAL FLORIDA

CITY           SKY/WX    TMP DP  RH WIND       PRES   REMARKS
DAYTONA BEACH  PTCLDY    77  70  79 CALM      29.95F
DELAND         CLEAR     72  70  94 CALM      29.95F
JFK SPACE CTR  CLEAR     77  75  94 E3        29.93F
CAPE CANAVERAL PTCLDY    80  74  82 NE5       29.92F
PATRICK AFB    PTCLDY    81  77  89 NE8       29.91F
MELBOURNE      CLEAR     82  75  79 NE8       29.93F
VERO BEACH     PTCLDY    76  74  93 CALM      29.92F
FT PIERCE      CLEAR     79  76  90 CALM      29.92F
STUART         PTCLDY    81  77  89 E6        29.93F

STATION/POSITION SKY/WX   TEMP    WIND        PRES    WAVE   SWELL
                          AIR SEA DIR/SP/G            HT/PER HT/PER
                          (F)     (DEG/KT/KT) (MB)    (FT/S) (FT/S)
28.5N   80.2W              83 84   70/ 10/ 14 1014.5F   4/11   3/11
28.9N   78.5W                      70/ 12/ 16 1014.5F   5/11   3/11
TRIDENT PIER                       80/  8/ 11 1015.2F
28.4N   80.5W                 83                N/A     3/11   2/11
27.5N   80.2W                 83                N/A     4/12   2/12

$$
FLZ050-056-061-142-242-148-248-149-249-151-251-155-255-
160-260-220700-
WEST CENTRAL FLORIDA

CITY           SKY/WX    TMP DP  RH WIND       PRES   REMARKS
CRYSTAL RIVER  FAIR     N/A N/A N/A CALM      29.97S
INVERNESS      FAIR      70  70 100 CALM      29.98S
BROOKSVILLE    CLEAR     74  69  85 NE3       29.97S
CLEARWATER AIR FAIR      77  68  73 E3        29.95S
ST PETE CLEARW CLEAR     81  70  69 E8        29.95S
TAMPA INTL     CLEAR     79  68  69 VRB3      29.96S
TAMPA EXEC     PTCLDY    72  70  94 CALM      29.96S
PLANT CITY     CLEAR     75  72  88 N3        29.97F
MACDILL AFB    CLEAR     76  74  96 E8        29.95S
PETER O KNIGHT MOCLDY    79  72  78 NE5       29.95F
ST PETERSBURG  CLEAR     81  72  74 E13       29.94S
SARASOTA       CLEAR     75  71  87 E5        29.93S
VENICE         FAIR      77  72  83 E6        29.94S

STATION/POSITION SKY/WX   TEMP    WIND        PRES    WAVE   SWELL
                          AIR SEA DIR/SP/G            HT/PER HT/PER
                          (F)     (DEG/KT/KT) (MB)    (FT/S) (FT/S)
27.3N   84.2W                 83                N/A     2/ 3
CLEARWATER BEACH                   80/  5/  9 1014.4S
MIDDLE TAMPA BAY                  110/  8/ 11 1014.2S
VENICE                     77 84   50/  5/  7 1013.7F

$$
FLZ066-069-070-075>078-162-262-165-265-220700-
SOUTHWEST FLORIDA AND KEYS

CITY           SKY/WX    TMP DP  RH WIND       PRES   REMARKS
PUNTA GORDA    CLEAR     74  72  93 N3        29.94F
FT MYERS       CLEAR     77  73  87 E3        29.92S
SOUTHWEST INTL CLEAR     77  71  82 CALM      29.92F
NAPLES         CLEAR     76  72  87 NE5       29.91F
IMMOKALEE      FAIR      75  73  94 CALM      29.93S
MARATHON       PTCLDY    83  73  72 E6        29.89F
KEY WEST NAS   CLOUDY    82  76  81 E7        29.90F
KEY WEST INTL  PTCLDY    82  76  81 E10       29.91S

STATION/POSITION SKY/WX   TEMP    WIND        PRES    WAVE   SWELL
                          AIR SEA DIR/SP/G            HT/PER HT/PER
                          (F)     (DEG/KT/KT) (MB)    (FT/S) (FT/S)
NAPLES                             40/  3/  5 1013.0F
DRY TORTUGAS               84      50/  9/ 11 1012.6F
SAND KEY                   83                 1013.2F

$$
FLZ067-068-071>074-168-172>174-220700-
SOUTHEAST FLORIDA

CITY           SKY/WX    TMP DP  RH WIND       PRES   REMARKS
W PALM BEACH   PTCLDY    83  75  77 E8        29.91F
FT LAUDER-EXEC CLEAR     81  75  82 NE3       29.89F
FT LAUDERDALE  PTCLDY    82  77  84 NE5       29.89F
POMPANO BEACH  PTCLDY    81  76  84 E7        29.90F
PEMBROKE PINES PTCLDY    79  75  87 CALM      29.91F
OPA LOCKA      CLEAR     79  75  87 N3        29.90F
MIAMI          PTCLDY    82  77  84 CALM      29.90F
WEST KENDALL   CLEAR     78  75  90 CALM      29.90F
HOMESTEAD      PTCLDY    79  77  94 CALM      29.89F

STATION/POSITION SKY/WX   TEMP    WIND        PRES    WAVE   SWELL
                          AIR SEA DIR/SP/G            HT/PER HT/PER
                          (F)     (DEG/KT/KT) (MB)    (FT/S) (FT/S)
PORT EVERGLADES            84      50/  8/ 10 1012.5
VIRGINIA KEY                       50/  7/ 10 1012.1F
LAKE WORTH                         80/  9/ 10   N/A
FOWEY ROCKS                83 85   60/  9/  9 1013.0F
SETTLEMENT POINT           83      80/  8/ 10 1013.0F

$$





USA.gov is the U.S. government's official web portal to all federal, state and local government web resources and services.